Date,TemperatureHighF,TemperatureAvgF,TemperatureLowF,DewpointHighF,DewpointAvgF,DewpointLowF,HumidityHigh,HumidityAvg,HumidityLow,PressureMaxIn,PressureMinIn,WindSpeedMaxMPH,WindSpeedAvgMPH,GustSpeedMaxMPH,PrecipitationSumIn
2014-1-1,16,4,-5,1,-11,-21,55,47,45,30.33,30.00,9,2,10,0.00
2014-1-2,7,-1,-6,-10,-16,-21,46,46,46,30.30,29.88,9,2,12,0.00
2014-1-3,4,-8,-18,-12,-23,-33,46,46,46,30.30,29.83,10,3,16,0.00
2014-1-4,15,0,-18,1,-16,-33,54,47,44,30.33,30.06,7,1,8,0.00
2014-1-5,32,21,9,30,11,-5,93,66,41,30.21,29.88,6,1,8,0.00
2014-1-6,49,34,19,48,30,6,98,84,52,29.88,29.26,13,4,15,0.79
2014-1-7,19,6,0,7,-4,-10,65,61,53,29.94,29.38,17,6,24,0.00
2014-1-8,18,6,0,2,-8,-15,61,53,44,30.33,29.91,11,3,15,0.00
2014-1-9,21,9,1,3,-8,-15,61,45,40,30.50,30.27,10,2,13,0.00
2014-1-10,26,16,4,22,4,-13,84,59,44,30.48,30.18,6,1,8,0.00
2014-1-11,49,37,26,48,36,21,98,94,80,30.18,29.18,10,1,17,0.75
2014-1-12,45,35,31,45,27,17,98,75,56,29.88,29.20,13,5,17,0.00
2014-1-13,41,34,24,25,21,18,86,60,41,30.00,29.80,5,0,8,0.00
2014-1-14,41,37,33,38,33,24,98,84,51,29.83,29.68,0,0,0,0.70
2014-1-15,42,32,26,33,29,25,100,88,54,29.94,29.77,3,0,7,0.00
2014-1-16,34,28,26,30,24,21,92,84,77,29.94,29.85,5,1,7,0.00
2014-1-17,36,28,20,29,22,16,96,80,52,29.91,29.80,6,1,9,0.00
2014-1-18,41,26,19,26,18,12,97,72,40,29.88,29.62,5,1,6,0.05
2014-1-19,30,24,20,24,18,12,88,78,62,29.68,29.38,13,2,14,0.00
2014-1-20,26,15,-5,21,7,-15,89,71,52,29.83,29.38,8,3,13,0.00
2014-1-21,10,-4,-14,0,-13,-23,63,63,63,30.00,29.83,8,2,10,0.00
2014-1-22,10,-6,-14,0,-15,-24,63,63,63,29.94,29.68,8,3,12,0.00
2014-1-23,13,-5,-16,3,-14,-25,63,63,63,30.09,29.85,6,2,10,0.00
2014-1-24,10,-4,-14,0,-14,-24,63,63,63,30.12,29.80,7,2,10,0.00
2014-1-25,22,14,3,14,4,-6,83,65,43,29.80,29.24,7,2,15,0.00
2014-1-26,16,4,-6,12,-2,-12,85,75,70,29.74,29.24,13,3,22,0.00
2014-1-27,30,14,1,24,2,-20,85,59,36,29.88,29.38,10,3,20,0.00
2014-1-28,16,1,-9,-7,-20,-28,37,36,34,30.12,29.65,8,2,14,0.00
2014-1-29,19,6,-6,-6,-16,-27,36,34,33,30.09,29.80,6,3,13,0.00
2014-1-30,25,12,2,3,-8,-20,51,39,34,30.27,29.97,5,2,10,0.00
2014-1-31,36,24,15,13,5,-2,72,45,34,30.09,29.85,8,3,12,0.00
2014-2-1,38,26,14,29,16,9,96,69,40,30.27,29.88,6,2,11,0.00
2014-2-2,35,31,23,31,27,15,97,85,69,30.06,29.80,5,2,12,0.00
2014-2-3,32,20,8,17,10,-1,87,68,45,30.27,30.09,4,1,8,0.00
2014-2-4,29,13,1,12,2,-7,79,60,40,30.36,30.21,5,1,8,0.00
2014-2-5,23,16,10,14,10,3,82,75,60,30.27,29.74,4,2,10,0.00
2014-2-6,21,6,-8,6,-6,-14,74,59,42,30.36,29.91,5,2,9,0.00
2014-2-7,24,10,-2,5,-6,-17,60,48,43,30.09,29.97,6,2,10,0.00
2014-2-8,25,10,2,5,-6,-13,52,48,40,30.15,30.03,6,2,11,0.00
2014-2-9,28,14,5,7,-2,-12,70,49,36,30.09,29.85,5,1,8,0.00
2014-2-10,24,11,1,6,-1,-12,72,59,42,30.09,29.85,6,2,12,0.00
2014-2-11,18,3,-8,0,-12,-26,55,48,41,30.36,30.09,7,2,14,0.00
2014-2-12,28,5,-11,4,-15,-28,45,38,32,30.44,30.27,4,2,7,0.04
2014-2-13,27,18,6,26,5,-14,97,60,37,30.30,29.26,9,2,18,0.00
2014-2-14,29,23,17,27,17,10,100,77,57,29.65,28.94,10,5,20,0.00
2014-2-15,35,24,15,20,16,11,86,72,51,29.80,29.62,9,2,17,0.00
2014-2-16,21,12,-1,13,-1,-17,75,55,43,29.94,29.62,11,4,20,0.00
2014-2-17,19,4,-4,-4,-15,-25,45,39,33,30.30,29.94,8,3,12,0.00
2014-2-18,29,11,-6,17,-5,-27,80,50,35,30.24,29.91,6,1,13,0.00
2014-2-19,36,25,11,26,19,6,90,77,47,30.00,29.71,3,1,6,0.00
2014-2-20,45,34,26,28,21,15,92,63,34,30.12,29.83,8,2,15,0.21
2014-2-21,37,33,30,32,29,27,100,87,69,30.12,29.68,9,2,17,0.70
2014-2-22,45,34,27,31,20,3,100,59,32,29.85,29.71,9,3,17,0.13
2014-2-23,47,32,22,18,9,1,51,38,28,29.91,29.74,8,3,15,0.00
2014-2-24,29,22,10,32,8,-2,58,45,36,29.85,29.68,9,4,15,0.00
2014-2-25,22,10,0,32,12,-8,75,55,40,29.88,29.77,7,3,15,0.00
2014-2-26,24,5,-6,13,-4,-16,81,66,58,29.85,29.68,7,2,20,0.00
2014-2-27,24,9,-6,10,-2,-16,75,63,54,29.80,29.50,5,2,15,0.00
2014-2-28,20,1,-5,7,-6,-16,74,71,56,30.33,29.74,6,4,17,0.00
2014-3-1,29,13,-6,15,0,-18,72,56,51,30.33,29.97,5,2,12,0.00
2014-3-2,33,19,-1,21,13,-6,100,78,54,30.12,29.94,5,3,13,0.00
2014-3-3,18,3,-8,6,-7,-19,77,65,54,30.21,29.97,7,3,15,0.00
2014-3-4,23,5,-12,5,-10,-23,57,49,29,30.24,30.15,5,2,10,0.00
2014-3-5,25,11,-2,14,-2,-11,70,54,36,30.48,30.18,6,2,12,0.00
2014-3-6,33,12,-10,12,-2,-18,65,53,37,30.56,30.39,4,2,8,0.00
2014-3-7,46,22,2,18,0,-11,64,40,20,30.56,29.91,5,2,11,0.00
2014-3-8,44,25,12,21,9,0,60,50,37,29.91,29.74,7,2,13,0.00
2014-3-9,32,14,6,16,2,-6,100,60,51,29.94,29.83,7,2,15,0.00
2014-3-10,38,21,15,28,16,8,100,79,57,29.83,29.56,3,0,8,0.00
2014-3-11,40,32,24,33,27,20,100,82,58,29.71,29.44,6,3,14,0.08
2014-3-12,34,26,15,30,24,13,100,94,84,29.77,29.24,7,3,15,0.00
2014-3-13,15,9,3,13,1,-11,93,72,49,29.83,29.24,10,6,19,0.00
2014-3-14,30,14,-5,16,-1,-19,74,51,35,30.03,29.71,5,2,12,0.00
2014-3-15,48,32,22,34,24,14,100,74,44,30.00,29.59,7,3,14,0.25
2014-3-16,22,11,-4,22,2,-17,100,68,49,30.15,29.62,9,6,19,0.00
2014-3-17,28,8,-9,8,-8,-22,57,47,39,30.15,29.97,6,2,12,0.00
2014-3-18,42,16,-4,18,-1,-21,64,47,31,30.30,30.09,4,2,9,0.00
2014-3-19,58,26,13,25,10,2,88,53,24,30.30,29.94,4,1,8,0.00
2014-3-20,36,32,28,32,28,23,91,84,67,29.94,29.56,7,2,14,0.00
2014-3-21,29,27,20,24,14,6,87,60,48,29.97,29.65,10,4,16,0.00
2014-3-22,32,24,14,32,19,4,100,82,54,30.00,29.62,12,3,27,0.00
2014-3-23,26,19,2,26,10,-11,100,70,49,30.09,29.85,11,4,19,0.00
2014-3-24,27,10,-2,9,-4,-16,55,51,43,30.18,29.97,11,3,16,0.00
2014-3-25,33,16,1,14,2,-13,66,55,46,30.06,29.91,9,2,13,0.00
2014-3-26,26,20,13,20,10,4,100,68,49,29.97,29.71,11,5,26,0.00
2014-3-27,36,22,8,14,7,-1,66,53,40,30.21,29.97,11,4,15,0.04
2014-3-28,37,32,28,37,30,12,100,90,48,30.12,29.85,5,2,13,0.41
2014-3-29,44,37,32,37,28,23,98,74,46,30.27,30.00,7,2,10,0.04
2014-3-30,36,32,30,32,30,25,98,92,70,30.09,29.77,7,3,17,0.46
2014-3-31,34,29,25,25,22,19,87,75,63,30.15,29.74,10,2,19,0.00
2014-4-1,52,36,23,23,19,15,77,52,29,30.15,30.00,7,3,13,0.00
2014-4-2,52,41,31,27,20,12,58,44,33,30.06,29.97,7,2,11,0.00
2014-4-3,40,33,26,28,19,14,71,57,44,30.18,30.03,9,3,12,0.00
2014-4-4,48,32,20,32,22,13,100,69,30,30.18,29.85,12,3,22,0.04
2014-4-5,35,32,28,35,28,14,100,87,54,29.88,29.65,7,1,12,0.12
2014-4-6,44,33,26,18,13,10,72,45,29,30.18,29.85,10,4,19,0.00
2014-4-7,55,41,30,38,24,12,100,53,40,30.21,29.94,8,2,13,0.00
2014-4-8,52,42,34,49,42,34,100,99,87,29.94,29.29,11,3,26,0.17
2014-4-9,39,33,25,35,20,4,100,63,31,29.94,29.50,10,4,17,0.00
2014-4-10,55,39,22,22,14,4,50,37,27,30.06,29.85,10,3,15,0.00
2014-4-11,56,47,38,31,24,21,63,42,30,30.06,29.85,10,3,14,0.00
2014-4-12,56,43,31,28,24,22,72,49,31,30.24,30.03,9,2,25,0.00
2014-4-13,49,40,35,44,35,24,100,83,55,30.27,29.97,6,1,11,0.25
2014-4-14,70,54,36,53,43,36,100,69,35,30.03,29.74,10,3,20,0.00
2014-4-15,61,50,27,59,50,27,100,98,74,29.85,29.50,8,2,23,0.83
2014-4-16,31,21,16,27,13,8,100,72,47,30.59,29.85,10,1,13,0.08
2014-4-17,43,28,13,22,16,10,89,63,43,30.74,30.56,7,2,10,0.04
2014-4-18,48,35,22,25,19,15,75,54,33,30.59,30.18,8,2,11,0.00
2014-4-19,44,36,30,37,27,18,100,70,50,30.44,30.12,10,3,17,0.00
2014-4-20,57,40,25,24,18,13,71,44,23,30.48,30.24,7,2,9,0.00
2014-4-21,69,52,37,38,28,16,50,40,30,30.24,29.83,7,2,12,0.00
2014-4-22,71,54,46,52,40,30,100,64,30,29.83,29.50,7,1,13,0.17
2014-4-23,48,39,34,48,36,27,100,89,71,29.74,29.50,10,4,17,0.04
2014-4-24,44,37,30,29,22,18,83,57,42,29.97,29.68,11,5,21,0.00
2014-4-25,62,45,26,32,27,20,100,54,29,30.00,29.85,8,2,11,0.00
2014-4-26,44,40,35,42,34,22,100,83,43,29.85,29.74,6,1,9,0.17
2014-4-27,48,39,34,44,37,34,100,93,66,30.09,29.85,8,2,12,0.04
2014-4-28,54,42,33,40,36,33,100,83,55,30.27,29.83,8,3,12,0.00
2014-4-29,60,44,31,38,32,28,100,68,36,30.48,30.21,9,3,13,0.00
2014-4-30,51,40,34,40,35,30,100,84,55,30.53,30.15,8,2,12,0.29
2014-5-1,67,48,36,56,46,36,100,93,60,30.15,29.68,8,1,12,0.54
2014-5-2,58,49,34,49,40,33,100,73,51,29.85,29.68,8,3,13,0.00
2014-5-3,64,49,38,48,41,35,100,76,48,29.88,29.74,8,2,11,0.08
2014-5-4,50,43,39,48,42,39,100,96,74,29.77,29.50,9,2,13,0.45
2014-5-5,54,43,37,45,41,37,100,95,62,29.91,29.68,9,4,15,0.00
2014-5-6,55,43,34,40,34,29,100,75,44,30.09,29.85,9,3,13,0.00
2014-5-7,63,47,30,39,33,24,100,62,33,30.21,30.06,7,3,13,0.00
2014-5-8,69,51,31,38,30,22,100,50,26,30.27,30.12,8,2,13,0.00
2014-5-9,53,48,39,48,34,21,100,62,37,30.27,30.03,5,1,7,0.00
2014-5-10,76,61,48,68,51,32,100,76,33,30.09,29.74,9,3,13,0.34
2014-5-11,69,58,48,43,37,31,67,48,30,30.06,29.80,12,4,20,0.00
2014-5-12,76,59,42,42,37,33,82,47,29,30.18,30.03,11,3,17,0.00
2014-5-13,67,53,46,50,41,32,86,65,48,30.30,30.15,6,2,9,0.00
2014-5-14,78,58,45,52,46,38,100,66,41,30.30,30.15,6,1,10,0.00
2014-5-15,76,62,48,64,57,46,100,85,60,30.30,30.15,8,2,15,0.00
2014-5-16,73,65,58,63,59,48,100,84,46,30.18,29.97,11,4,24,0.00
2014-5-17,67,58,45,62,51,37,100,82,47,30.15,29.85,8,2,11,1.74
2014-5-18,69,53,40,44,36,26,100,59,32,30.21,30.09,9,3,12,0.00
2014-5-19,53,44,35,49,40,27,100,86,53,30.18,30.06,7,2,12,0.17
2014-5-20,69,55,38,49,42,35,100,68,34,30.12,30.03,8,2,18,0.00
2014-5-21,76,59,43,53,46,40,100,68,33,30.06,29.91,6,1,8,0.00
2014-5-22,71,55,48,57,52,48,100,90,48,29.97,29.85,8,1,10,0.91
2014-5-23,62,53,48,61,53,48,100,100,90,30.00,29.88,4,0,6,0.08
2014-5-24,73,57,45,62,53,45,100,87,50,30.09,30.00,7,1,10,0.30
2014-5-25,78,59,44,60,49,40,100,74,32,30.12,29.97,7,2,11,0.04
2014-5-26,70,59,51,66,57,51,100,94,69,30.00,29.83,8,2,12,0.29
2014-5-27,60,53,46,59,53,46,100,100,100,30.00,29.85,10,1,10,0.95
2014-5-28,62,48,41,53,46,41,100,95,60,30.24,29.97,5,1,8,0.08
2014-5-29,72,53,35,54,42,35,100,74,33,30.30,30.09,8,1,10,0.00
2014-5-30,69,54,43,59,49,43,100,87,51,30.15,30.03,6,1,8,0.29
2014-5-31,71,55,44,56,48,40,100,80,34,30.39,30.12,6,2,10,0.00
2014-6-1,78,60,40,54,47,40,100,69,33,30.44,30.21,6,2,8,0.00
2014-6-2,85,66,49,54,49,43,95,60,29,30.21,29.97,6,2,10,0.00
2014-6-3,83,67,52,60,52,39,100,63,33,30.06,29.85,8,2,16,0.00
2014-6-4,76,62,54,64,57,45,100,85,48,29.91,29.74,6,1,9,0.00
2014-6-5,76,56,47,63,54,47,100,92,43,29.85,29.71,5,1,8,0.09
2014-6-6,67,57,51,57,53,51,100,87,58,29.94,29.77,6,3,11,0.00
2014-6-7,81,65,48,60,52,48,100,69,37,30.03,29.91,7,2,12,0.00
2014-6-8,80,68,56,62,55,49,100,66,37,30.03,29.88,5,1,9,0.00
2014-6-9,79,69,60,66,59,52,100,72,43,30.03,29.91,5,1,8,0.00
2014-6-10,69,64,55,64,60,55,100,88,71,30.18,29.97,6,1,10,0.00
2014-6-11,74,60,50,60,52,42,100,80,33,30.24,30.15,8,2,14,0.04
2014-6-12,56,54,51,56,54,51,100,100,93,30.21,30.09,5,1,8,0.87
2014-6-13,63,58,55,63,58,55,100,100,100,30.09,29.85,6,1,9,0.74
2014-6-14,64,57,54,62,56,53,100,97,74,30.03,29.85,6,1,8,0.09
2014-6-15,66,57,51,59,52,46,100,86,55,30.15,29.97,7,2,10,0.00
2014-6-16,74,61,47,56,49,45,100,67,37,30.21,30.06,6,1,9,0.00
2014-6-17,78,70,58,63,57,50,97,64,43,30.09,29.83,5,1,7,0.00
2014-6-18,70,64,60,66,63,58,100,94,71,30.00,29.68,7,3,13,0.37
2014-6-19,68,63,54,60,48,39,100,62,37,30.06,29.97,9,3,15,0.00
2014-6-20,60,54,46,47,42,38,97,66,48,30.06,29.97,8,2,15,0.00
2014-6-21,63,53,42,52,44,42,100,75,48,30.06,29.97,7,2,12,0.00
2014-6-22,70,58,44,53,49,44,100,74,47,30.09,29.97,6,1,8,0.00
2014-6-23,74,62,49,57,52,45,100,72,37,30.21,30.09,6,1,11,0.00
2014-6-24,70,64,56,67,60,52,100,87,68,30.12,29.94,5,1,8,0.00
2014-6-25,75,66,0,68,65,60,100,95,72,29.97,29.88,6,1,10,0.95
2014-6-26,77,64,57,66,60,53,100,87,61,30.09,29.85,4,2,10,0.26
2014-6-27,77,65,52,61,51,45,98,65,36,30.24,30.09,5,2,13,0.00
2014-6-28,79,67,55,58,51,47,85,59,34,30.33,30.21,3,1,8,0.00
2014-6-29,80,69,58,59,52,48,79,58,34,30.33,30.06,3,1,8,0.00
2014-6-30,80,74,63,70,65,58,92,75,63,30.09,29.88,3,2,8,0.00
2014-7-1,85,76,65,72,68,64,97,79,56,29.94,29.74,4,2,12,0.00
2014-7-2,86,74,67,73,68,64,97,83,50,29.97,29.77,6,2,14,0.12
2014-7-3,84,72,65,70,66,61,98,82,48,30.03,29.85,6,1,15,0.54
2014-7-4,69,64,56,65,61,53,98,93,80,30.06,29.91,5,2,10,0.16
2014-7-5,71,62,54,55,47,38,96,60,44,30.06,29.91,6,4,17,0.05
2014-7-6,76,67,57,55,51,48,78,57,41,30.00,29.85,6,2,13,0.00
2014-7-7,75,65,58,66,58,49,98,79,57,29.88,29.71,4,2,10,0.45
2014-7-8,79,71,65,68,65,61,98,83,59,29.83,29.62,5,2,13,0.08
2014-7-9,75,68,62,65,59,52,98,76,47,29.97,29.65,5,3,15,0.17
2014-7-10,69,62,55,60,49,43,93,65,42,30.24,29.97,4,2,11,0.00
2014-7-11,72,61,50,53,49,44,87,65,43,30.33,30.21,4,1,8,0.00
2014-7-12,77,66,53,60,54,49,89,69,47,30.30,30.09,4,1,9,0.00
2014-7-13,76,68,63,68,64,60,98,87,70,30.12,29.85,4,2,11,0.12
2014-7-14,77,67,61,67,62,56,98,84,52,29.94,29.85,4,1,13,0.38
2014-7-15,75,70,61,69,66,60,98,89,75,29.91,29.74,3,1,7,0.08
2014-7-16,69,64,58,66,61,55,98,91,71,29.94,29.77,4,1,9,0.46
2014-7-17,68,60,54,57,53,48,97,77,50,30.12,29.94,3,1,9,0.00
2014-7-18,73,62,49,56,51,47,96,70,44,30.33,30.12,4,1,9,0.00
2014-7-19,74,64,53,59,54,50,93,71,45,30.39,30.24,2,0,5,0.00
2014-7-20,74,66,58,60,54,49,93,69,43,30.27,30.15,4,1,13,0.00
2014-7-21,78,67,56,61,57,54,95,73,47,30.24,30.12,3,1,8,0.00
2014-7-22,90,73,61,70,63,58,92,73,41,30.18,29.97,3,1,8,0.00
2014-7-23,89,71,63,73,66,60,98,86,54,29.97,29.74,6,2,13,0.62
2014-7-24,80,64,53,62,54,45,98,72,40,30.00,29.80,6,2,12,0.04
2014-7-25,72,61,50,58,53,48,96,76,49,30.06,29.91,4,1,9,0.00
2014-7-26,74,65,57,61,55,50,93,72,45,30.00,29.85,4,2,10,0.00
2014-7-27,71,62,57,65,60,54,98,91,77,29.94,29.68,4,1,10,0.62
2014-7-28,68,62,58,67,62,57,98,98,95,29.77,29.53,6,1,12,0.96
2014-7-29,66,57,52,57,51,48,97,82,56,30.03,29.62,4,1,11,0.00
2014-7-30,70,56,50,57,50,46,97,85,44,30.09,30.00,3,0,8,0.00
2014-7-31,67,60,53,61,56,50,97,88,72,30.18,30.09,3,1,8,0.00
2014-8-1,76,66,56,63,58,54,98,79,49,30.27,30.15,4,1,8,0.00
2014-8-2,77,68,61,66,61,57,98,80,56,30.27,30.09,3,1,8,0.00
2014-8-3,76,67,58,65,61,56,96,82,56,30.18,30.03,4,1,6,0.00
2014-8-4,74,67,0,64,61,56,96,82,66,30.12,30.03,4,1,10,0.00
2014-8-5,78,66,59,65,61,57,98,83,56,30.09,29.94,3,1,9,0.00
2014-8-6,70,64,56,63,57,46,98,80,47,29.97,29.85,5,1,11,0.00
2014-8-7,64,57,53,57,54,49,98,89,71,30.03,29.91,4,1,10,0.20
2014-8-8,72,62,50,62,55,50,98,81,54,30.12,30.00,4,2,11,0.00
2014-8-9,75,67,56,62,56,51,95,69,46,30.18,30.09,4,2,9,0.00
2014-8-10,80,65,55,63,57,52,94,77,49,30.21,30.12,3,1,6,0.00
2014-8-11,88,68,54,66,57,52,98,71,40,30.21,30.09,3,1,6,0.00
2014-8-12,76,68,60,65,60,56,95,76,53,30.15,30.03,4,2,11,0.00
2014-8-13,65,61,56,60,57,56,98,88,78,30.06,29.74,7,3,17,0.79
2014-8-14,64,57,51,56,52,47,98,86,56,29.94,29.74,4,2,10,0.00
2014-8-15,64,56,49,53,49,46,96,80,53,29.94,29.88,4,1,10,0.00
2014-8-16,65,58,53,56,54,48,98,87,59,29.97,29.91,4,1,9,0.04
2014-8-17,62,58,54,58,55,53,98,92,75,29.94,29.85,5,2,11,0.17
2014-8-18,61,56,51,56,51,46,98,83,60,29.97,29.85,4,2,13,0.20
2014-8-19,70,58,48,58,52,47,98,81,55,30.03,29.94,4,1,7,0.00
2014-8-20,80,63,51,62,55,50,96,77,44,30.12,30.00,3,1,6,0.00
2014-8-21,79,64,56,65,58,54,98,83,52,30.15,30.09,3,1,8,0.13
2014-8-22,68,62,54,62,58,53,98,88,72,30.21,30.12,2,0,5,0.00
2014-8-23,78,65,53,63,56,50,98,76,42,30.24,30.15,4,1,9,2.63
2014-8-24,84,67,52,63,57,52,98,75,38,30.27,30.15,3,1,9,0.00
2014-8-25,87,68,55,67,59,53,98,76,44,30.24,30.15,4,1,8,0.00
2014-8-26,80,68,55,63,57,52,98,72,44,30.21,30.03,4,2,11,0.00
2014-8-27,78,70,63,65,59,55,84,71,48,30.03,29.88,4,2,9,0.00
2014-8-28,64,59,51,57,49,42,94,73,48,30.09,29.91,5,2,15,0.00
2014-8-29,78,62,48,57,51,46,94,72,39,30.24,30.06,4,1,9,0.00
2014-8-30,76,63,53,58,55,51,98,77,45,30.30,30.09,5,2,14,0.00
2014-8-31,71,66,0,68,65,57,98,93,82,30.12,28.41,4,2,11,0.00
2014-9-1,86,71,62,71,66,61,98,85,49,29.91,29.62,4,1,9,0.33
2014-9-2,86,73,61,71,66,60,98,81,57,29.88,29.65,5,2,15,0.34
2014-9-3,83,65,55,65,58,50,98,79,42,30.03,29.65,4,2,12,0.04
2014-9-4,81,64,51,61,56,50,98,78,43,30.12,30.00,4,1,10,0.00
2014-9-5,84,72,60,69,64,59,98,79,47,30.06,29.83,5,2,13,0.00
2014-9-6,77,67,57,71,64,56,98,91,71,29.88,29.68,6,2,15,0.12
2014-9-7,74,59,46,57,49,44,98,75,42,30.15,29.85,4,1,12,0.00
2014-9-8,78,60,45,57,50,44,98,76,38,30.33,30.15,3,1,6,0.00
2014-9-9,74,58,46,56,46,41,98,71,35,30.33,30.12,4,1,9,0.00
2014-9-10,76,59,43,57,50,41,97,76,43,30.15,29.91,5,1,8,0.00
2014-9-11,66,33,0,65,57,49,98,93,83,29.94,29.65,6,2,14,0.21
2014-9-12,56,48,39,49,40,37,92,74,55,30.24,29.88,4,2,10,0.00
2014-9-13,53,46,38,49,43,37,98,88,67,30.24,30.00,4,1,8,0.13
2014-9-14,50,44,36,49,39,34,98,82,65,30.21,30.03,5,2,13,0.00
2014-9-15,64,46,30,43,38,29,98,77,43,30.18,30.00,4,1,10,0.00
2014-9-16,58,50,44,54,47,43,98,92,76,30.18,29.88,4,1,8,0.12
2014-9-17,68,51,40,53,45,39,98,83,42,30.00,29.85,4,1,11,0.00
2014-9-18,58,47,35,52,42,30,97,82,57,30.12,29.85,4,2,9,0.00
2014-9-19,60,42,28,34,29,24,88,63,28,30.36,30.12,4,2,7,0.00
2014-9-20,56,38,35,50,34,30,91,86,78,30.27,30.09,4,1,12,0.00
2014-9-21,75,75,75,59,59,59,58,58,58,29.74,29.74,3,3,7,0.00
2014-9-22,58,49,43,47,39,33,79,69,62,30.00,29.62,7,3,17,0.21
2014-9-23,62,49,38,49,42,34,97,76,53,30.36,30.00,4,2,13,0.00
2014-9-24,70,53,43,57,46,42,98,81,42,30.53,30.36,4,1,11,0.00
2014-9-25,72,54,42,56,48,42,98,83,48,30.48,30.18,4,1,9,0.00
2014-9-26,76,57,43,58,52,42,98,84,50,30.24,30.09,4,1,7,0.00
2014-9-27,83,63,50,62,56,50,98,80,43,30.18,30.09,4,1,8,0.00
2014-9-28,83,65,52,64,58,52,98,81,42,30.15,29.91,3,1,9,0.00
2014-9-29,75,63,55,62,56,53,97,79,50,30.12,29.88,3,1,8,0.00
2014-9-30,74,58,52,58,53,51,98,85,51,30.00,29.88,3,1,8,0.00
2014-10-1,64,56,51,55,52,49,98,87,63,30.09,30.00,3,1,7,0.00
2014-10-2,73,57,49,55,50,45,98,78,43,30.15,30.00,4,1,10,0.00
2014-10-3,74,56,44,48,43,37,91,65,36,30.12,29.83,4,1,8,0.00
2014-10-4,61,54,47,56,51,46,98,90,71,29.83,29.50,6,2,18,0.99
2014-10-5,62,47,38,55,39,30,98,77,40,29.88,29.53,6,2,13,0.04
2014-10-6,64,47,34,45,36,33,97,71,35,30.03,29.88,6,2,17,0.00
2014-10-7,67,55,0,60,50,41,98,85,62,30.03,29.88,6,2,14,0.25
2014-10-8,63,55,47,55,49,33,98,83,46,29.97,29.59,7,3,23,0.50
2014-10-9,54,45,35,39,33,28,97,65,44,29.88,29.74,7,3,14,0.04
2014-10-10,56,43,33,38,34,30,96,71,46,30.06,24.57,5,2,11,0.00
2014-10-11,56,43,36,43,35,31,95,75,47,30.12,29.97,4,1,8,0.00
2014-10-12,58,42,32,41,32,28,98,73,38,30.21,30.03,4,1,8,0.00
2014-10-13,59,46,31,47,37,27,90,71,43,30.24,30.15,4,1,11,0.00
2014-10-14,75,62,51,59,54,47,93,78,54,30.15,30.00,6,2,15,0.00
2014-10-15,78,66,58,64,59,56,98,80,53,30.06,29.91,5,2,13,0.00
2014-10-16,71,65,62,66,62,59,98,92,75,29.94,29.59,5,1,13,1.33
2014-10-17,65,57,52,61,52,45,98,86,58,29.62,29.50,6,2,12,0.20
2014-10-18,56,50,43,54,48,41,98,94,83,29.56,29.44,6,2,12,0.00
2014-10-19,43,38,35,41,33,23,95,84,55,29.85,29.56,6,3,12,0.00
2014-10-20,52,39,32,31,25,18,76,57,43,29.94,29.83,5,2,14,0.00
2014-10-21,47,42,36,45,39,29,98,90,75,30.03,29.88,4,1,9,2.20
2014-10-22,54,46,42,45,42,36,98,88,61,30.09,29.97,6,2,13,0.17
2014-10-23,48,46,44,46,44,42,97,93,86,30.00,29.74,6,3,17,0.66
2014-10-24,44,42,40,43,41,38,98,95,90,30.09,29.68,4,2,10,0.24
2014-10-25,59,45,32,46,38,31,98,80,42,29.77,29.41,4,1,9,0.38
2014-10-26,51,42,40,45,38,35,98,86,67,29.74,29.35,7,3,15,0.12
2014-10-27,46,40,35,38,36,33,97,86,72,29.97,29.59,7,4,18,0.00
2014-10-28,52,43,36,48,41,35,98,94,77,30.00,29.71,3,0,5,0.04
2014-10-29,52,47,38,52,43,31,98,88,56,29.85,29.71,6,2,11,0.05
2014-10-30,50,40,34,39,33,27,94,77,56,29.91,29.77,5,2,11,0.00
2014-10-31,50,40,33,36,28,24,85,64,45,30.00,29.91,4,1,9,0.00
2014-11-1,39,35,32,35,29,24,91,79,63,29.97,29.85,6,3,13,0.04
2014-11-2,34,31,27,27,19,8,79,61,43,29.91,29.71,9,6,24,0.00
2014-11-3,45,32,24,20,11,-7,67,44,14,29.97,29.77,8,4,21,0.00
2014-11-4,48,40,29,35,29,19,74,64,52,30.03,29.85,3,0,4,0.00
2014-11-5,58,48,40,41,30,24,67,51,37,30.00,29.83,6,3,15,0.00
2014-11-6,51,41,35,36,32,26,96,72,51,30.00,29.56,3,1,8,0.21
2014-11-7,35,32,28,34,30,20,98,90,74,29.71,29.47,7,4,16,0.24
2014-11-8,37,30,25,23,19,15,74,63,49,29.88,29.68,7,2,13,0.00
2014-11-9,43,34,27,28,25,22,89,70,54,29.91,29.74,5,2,12,0.00
2014-11-10,50,37,27,33,28,24,90,72,48,30.12,29.88,6,2,13,0.00
2014-11-11,61,45,0,42,35,28,97,71,44,30.09,29.88,6,2,12,0.00
2014-11-12,52,43,32,49,39,24,97,86,70,29.94,29.77,7,2,18,0.09
2014-11-13,38,32,25,25,20,17,86,63,50,29.97,29.85,4,1,10,0.00
2014-11-14,38,28,22,31,20,12,91,73,50,30.00,29.80,6,2,13,0.00
2014-11-15,33,22,16,16,11,6,81,63,42,30.18,29.94,6,2,15,0.00
2014-11-16,33,27,16,25,17,9,82,66,55,30.18,29.83,5,2,14,0.00
2014-11-17,34,31,28,33,27,17,98,86,57,30.06,29.35,3,0,6,0.04
2014-11-18,34,25,15,34,14,-1,98,63,46,29.65,29.35,7,3,16,0.00
2014-11-19,34,20,12,16,7,0,86,60,42,29.91,29.62,7,3,17,0.00
2014-11-20,36,22,13,21,10,1,81,60,46,29.88,29.59,7,3,17,0.00
2014-11-21,26,16,8,12,3,-8,79,57,46,30.21,29.71,9,4,16,0.00
2014-11-22,34,29,11,23,12,-2,65,51,40,30.21,29.74,7,3,15,0.04
2014-11-23,42,36,34,40,32,23,98,85,62,30.03,29.85,4,2,9,0.04
2014-11-24,58,49,36,56,48,36,98,94,82,29.97,29.41,7,2,19,0.46
2014-11-25,54,44,33,52,31,19,98,62,42,29.97,29.53,6,3,14,0.00
2014-11-26,37,30,26,25,21,16,90,70,53,30.12,29.77,6,2,12,0.00
2014-11-27,29,24,21,24,18,14,91,77,62,29.94,29.74,5,3,13,0.00
2014-11-28,28,19,10,19,12,3,85,74,55,30.03,29.88,5,1,12,0.00
2014-11-29,31,16,6,17,8,1,84,72,45,30.15,30.03,4,1,10,0.00
2014-11-30,40,32,20,40,28,15,98,84,72,30.03,29.83,4,1,12,0.29
2014-12-1,45,35,23,44,29,11,98,81,57,30.36,29.83,6,3,15,0.04
2014-12-2,30,21,9,21,7,-3,90,56,42,30.56,30.27,7,3,17,0.00
2014-12-3,38,32,23,36,30,21,98,93,70,30.27,29.71,8,3,20,0.16
2014-12-4,29,21,5,23,6,-11,82,52,37,30.48,29.88,10,4,23,0.00
2014-12-5,32,18,4,22,3,-12,86,53,39,30.53,30.30,4,1,8,0.00
2014-12-6,34,31,25,32,28,21,97,92,84,30.30,30.03,3,1,6,0.00
2014-12-7,25,13,-3,21,0,-19,84,58,43,30.59,30.21,4,2,9,0.00
2014-12-8,21,7,-5,12,-7,-21,81,51,43,30.59,30.36,4,1,8,0.00
2014-12-9,33,29,17,33,27,12,98,91,81,30.39,29.68,5,2,16,0.00
2014-12-10,34,33,32,34,32,31,98,97,90,29.71,29.38,7,3,18,0.09
2014-12-11,38,31,27,36,29,26,98,94,91,29.68,29.38,0,0,0,0.29
2014-12-12,34,27,24,28,24,20,94,88,71,29.83,29.65,0,0,0,0.00
2014-12-13,28,25,0,24,22,20,92,87,78,29.83,29.71,0,0,0,0.00
2014-12-14,32,28,24,29,25,22,93,89,81,29.88,29.71,0,0,0,0.00
2014-12-15,30,25,22,24,22,20,92,86,74,30.03,29.88,0,0,0,0.00
2014-12-16,34,28,23,31,26,21,96,90,76,30.06,29.88,0,0,0,0.00